• In Österreich
  • Länderverzeichnis
  • Für 7 Tage
  • Wassertemperatur
  • Satellitenkarten
  • Wetterkarte
  • News
  • Widgets
  • user-avatar
    Anmelden

    Stündliche Wetter Shatry

    Heute, 16 Juli, Montag

    Zeit Temperatur Niederschläge Wind Luftdruck Luftfeuchtigkeit
    00:00 +19°C° 0 mm 1 m/S 742 mmHg 95%
    01:00 +19°C° 0 mm 1 m/S 742 mmHg 96%
    02:00 +18°C° 0 mm 2 m/S 742 mmHg 96%
    03:00 +18°C° 0 mm 2 m/S 742 mmHg 96%
    04:00 +18°C° 0 mm 2 m/S 742 mmHg 96%
    05:00 +18°C° 0 mm 2 m/S 742 mmHg 96%
    06:00 +20°C° 0 mm 2 m/S 742 mmHg 91%
    07:00 +21°C° 0 mm 2 m/S 742 mmHg 86%
    08:00 +24°C° 0 mm 3 m/S 742 mmHg 80%
    09:00 +25°C° 0,2 mm 3 m/S 742 mmHg 73%
    10:00 +27°C° 0,2 mm 3 m/S 742 mmHg 66%
    11:00 +28°C° 0,2 mm 4 m/S 742 mmHg 58%
    12:00 +28°C° 0,5 mm 4 m/S 741 mmHg 63%
    13:00 +28°C° 0,5 mm 3 m/S 741 mmHg 68%
    14:00 +28°C° 0,5 mm 3 m/S 741 mmHg 73%
    15:00 +27°C° 0,4 mm 3 m/S 741 mmHg 75%
    16:00 +27°C° 0,4 mm 3 m/S 741 mmHg 78%
    17:00 +26°C° 0,4 mm 2 m/S 741 mmHg 81%
    18:00 +25°C° 0,1 mm 2 m/S 741 mmHg 83%
    19:00 +24°C° 0,1 mm 2 m/S 741 mmHg 84%
    20:00 +23°C° 0,1 mm 2 m/S 741 mmHg 86%
    21:00 +21°C° 0 mm 2 m/S 741 mmHg 86%
    22:00 +20°C° 0 mm 2 m/S 741 mmHg 87%
    23:00 +19°C° 0 mm 2 m/S 741 mmHg 88%

    Morgen, 17 Juli, Dienstag

    Zeit Temperatur Niederschläge Wind Luftdruck Luftfeuchtigkeit
    00:00 +19°C° 0 mm 3 m/S 741 mmHg 88%
    01:00 +19°C° 0 mm 3 m/S 741 mmHg 88%
    02:00 +18°C° 0 mm 3 m/S 741 mmHg 88%
    03:00 +18°C° 0 mm 3 m/S 741 mmHg 88%
    04:00 +19°C° 0 mm 3 m/S 741 mmHg 88%
    05:00 +19°C° 0 mm 3 m/S 741 mmHg 88%
    06:00 +21°C° 0 mm 4 m/S 741 mmHg 81%
    07:00 +22°C° 0 mm 4 m/S 740 mmHg 74%
    08:00 +25°C° 0 mm 5 m/S 740 mmHg 67%
    09:00 +27°C° 0 mm 5 m/S 740 mmHg 62%
    10:00 +28°C° 0 mm 5 m/S 740 mmHg 57%
    11:00 +29°C° 0 mm 5 m/S 740 mmHg 52%
    12:00 +29°C° 0 mm 5 m/S 740 mmHg 51%
    13:00 +30°C° 0 mm 5 m/S 739 mmHg 50%
    14:00 +30°C° 0 mm 5 m/S 739 mmHg 49%
    15:00 +30°C° 0 mm 5 m/S 739 mmHg 51%
    16:00 +29°C° 0 mm 5 m/S 739 mmHg 53%
    17:00 +29°C° 0 mm 4 m/S 738 mmHg 54%
    18:00 +28°C° 0 mm 4 m/S 738 mmHg 61%
    19:00 +26°C° 0 mm 3 m/S 738 mmHg 68%
    20:00 +24°C° 0 mm 3 m/S 738 mmHg 74%
    21:00 +24°C° 0 mm 3 m/S 738 mmHg 76%
    22:00 +22°C° 0 mm 3 m/S 738 mmHg 79%
    23:00 +21°C° 0 mm 3 m/S 738 mmHg 81%

    übermorgen, 18 Juli, Mittwoch

    Zeit Temperatur Niederschläge Wind Luftdruck Luftfeuchtigkeit
    00:00 +21°C° 0 mm 3 m/S 738 mmHg 84%
    01:00 +21°C° 0 mm 3 m/S 738 mmHg 87%
    02:00 +20°C° 0 mm 3 m/S 738 mmHg 90%
    03:00 +20°C° 0,1 mm 3 m/S 738 mmHg 90%
    04:00 +20°C° 0,1 mm 3 m/S 738 mmHg 91%
    05:00 +20°C° 0,1 mm 3 m/S 738 mmHg 91%
    06:00 +21°C° 0 mm 3 m/S 738 mmHg 88%
    07:00 +22°C° 0 mm 3 m/S 738 mmHg 84%
    08:00 +24°C° 0 mm 3 m/S 738 mmHg 81%
    09:00 +25°C° 0,1 mm 4 m/S 738 mmHg 74%
    10:00 +27°C° 0,1 mm 4 m/S 739 mmHg 67%
    11:00 +28°C° 0,1 mm 4 m/S 739 mmHg 60%
    12:00 +29°C° 0,1 mm 4 m/S 738 mmHg 57%
    13:00 +30°C° 0,1 mm 4 m/S 738 mmHg 53%
    14:00 +30°C° 0,1 mm 5 m/S 738 mmHg 50%
    15:00 +30°C° 0,2 mm 4 m/S 738 mmHg 54%
    16:00 +29°C° 0,2 mm 4 m/S 738 mmHg 57%
    17:00 +28°C° 0,2 mm 4 m/S 738 mmHg 61%
    18:00 +26°C° 0,3 mm 3 m/S 738 mmHg 70%
    19:00 +24°C° 0,3 mm 3 m/S 738 mmHg 80%
    20:00 +21°C° 0,3 mm 2 m/S 738 mmHg 89%
    21:00 +21°C° 0 mm 2 m/S 738 mmHg 91%
    22:00 +20°C° 0 mm 2 m/S 739 mmHg 92%
    23:00 +19°C° 0 mm 2 m/S 739 mmHg 94%

    19 Juli, Donnerstag

    Zeit Temperatur Niederschläge Wind Luftdruck Luftfeuchtigkeit
    00:00 +19°C° 0 mm 2 m/S 739 mmHg 95%
    01:00 +18°C° 0 mm 2 m/S 738 mmHg 96%
    02:00 +18°C° 0 mm 2 m/S 738 mmHg 97%
    03:00 +18°C° 0 mm 3 m/S 738 mmHg 96%
    04:00 +18°C° 0 mm 3 m/S 739 mmHg 96%
    05:00 +18°C° 0 mm 3 m/S 739 mmHg 95%
    06:00 +19°C° 0 mm 3 m/S 739 mmHg 92%
    07:00 +19°C° 0 mm 3 m/S 739 mmHg 88%
    08:00 +20°C° 0 mm 3 m/S 739 mmHg 85%
    09:00 +20°C° 0,1 mm 3 m/S 739 mmHg 84%
    10:00 +21°C° 0,1 mm 3 m/S 739 mmHg 82%
    11:00 +21°C° 0,1 mm 2 m/S 739 mmHg 81%
    12:00 +23°C° 0 mm 2 m/S 739 mmHg 77%
    13:00 +24°C° 0 mm 2 m/S 739 mmHg 74%
    14:00 +25°C° 0 mm 2 m/S 739 mmHg 70%
    15:00 +25°C° 0,1 mm 2 m/S 739 mmHg 71%
    16:00 +25°C° 0,1 mm 2 m/S 739 mmHg 72%
    17:00 +26°C° 0,1 mm 2 m/S 739 mmHg 72%
    18:00 +24°C° 0,2 mm 2 m/S 739 mmHg 79%
    19:00 +23°C° 0,2 mm 2 m/S 739 mmHg 86%
    20:00 +21°C° 0,2 mm 2 m/S 739 mmHg 92%
    21:00 +21°C° 0,4 mm 1 m/S 739 mmHg 94%
    22:00 +21°C° 0,4 mm 1 m/S 739 mmHg 96%
    23:00 +20°C° 0,4 mm 1 m/S 739 mmHg 97%

    20 Juli, Freitag

    Zeit Temperatur Niederschläge Wind Luftdruck Luftfeuchtigkeit
    00:00 +20°C° 0,1 mm 1 m/S 739 mmHg 98%
    01:00 +19°C° 0,1 mm 1 m/S 739 mmHg 98%
    02:00 +19°C° 0,1 mm 1 m/S 739 mmHg 98%
    03:00 +19°C° 0 mm 1 m/S 739 mmHg 98%
    04:00 +19°C° 0 mm 1 m/S 739 mmHg 98%
    05:00 +19°C° 0 mm 1 m/S 739 mmHg 98%
    06:00 +21°C° 0 mm 1 m/S 739 mmHg 92%
    07:00 +22°C° 0 mm 1 m/S 739 mmHg 87%
    08:00 +24°C° 0 mm 1 m/S 739 mmHg 82%
    09:00 +25°C° 0,4 mm 1 m/S 739 mmHg 77%
    10:00 +26°C° 0,4 mm 1 m/S 739 mmHg 73%
    11:00 +28°C° 0,4 mm 1 m/S 739 mmHg 68%
    12:00 +28°C° 1,5 mm 1 m/S 739 mmHg 70%
    13:00 +28°C° 1,5 mm 1 m/S 739 mmHg 72%
    14:00 +28°C° 1,5 mm 2 m/S 739 mmHg 74%
    15:00 +27°C° 0,6 mm 2 m/S 739 mmHg 75%
    16:00 +27°C° 0,6 mm 1 m/S 739 mmHg 76%
    17:00 +27°C° 0,6 mm 1 m/S 739 mmHg 76%
    18:00 +26°C° 0,3 mm 1 m/S 739 mmHg 81%
    19:00 +25°C° 0,3 mm 1 m/S 739 mmHg 86%
    20:00 +23°C° 0,3 mm 1 m/S 739 mmHg 91%
    21:00 +23°C° 1,3 mm 1 m/S 739 mmHg 92%
    22:00 +22°C° 1,3 mm 1 m/S 739 mmHg 94%
    23:00 +21°C° 1,3 mm 1 m/S 739 mmHg 96%

    21 Juli, Samstag

    Zeit Temperatur Niederschläge Wind Luftdruck Luftfeuchtigkeit
    00:00 +21°C° 0,4 mm 1 m/S 739 mmHg 96%
    01:00 +21°C° 0,4 mm 1 m/S 739 mmHg 97%
    02:00 +20°C° 0,4 mm 1 m/S 739 mmHg 97%
    03:00 +20°C° 0 mm 1 m/S 739 mmHg 97%
    04:00 +20°C° 0 mm 1 m/S 739 mmHg 97%
    05:00 +21°C° 0 mm 1 m/S 739 mmHg 97%
    06:00 +22°C° 0 mm 1 m/S 739 mmHg 92%
    07:00 +24°C° 0 mm 1 m/S 739 mmHg 88%
    08:00 +25°C° 0 mm 1 m/S 739 mmHg 83%
    09:00 +27°C° 0,4 mm 1 m/S 739 mmHg 77%
    10:00 +28°C° 0,4 mm 1 m/S 739 mmHg 72%
    11:00 +29°C° 0,4 mm 1 m/S 739 mmHg 66%
    12:00 +29°C° 1 mm 1 m/S 739 mmHg 68%
    13:00 +29°C° 1 mm 1 m/S 739 mmHg 69%
    14:00 +29°C° 1 mm 1 m/S 739 mmHg 70%
    15:00 +28°C° 2 mm 1 m/S 739 mmHg 76%
    16:00 +28°C° 2 mm 1 m/S 739 mmHg 82%
    17:00 +27°C° 2 mm 1 m/S 739 mmHg 88%
    18:00 +26°C° 0,3 mm 1 m/S 739 mmHg 89%
    19:00 +24°C° 0,3 mm 1 m/S 739 mmHg 90%
    20:00 +23°C° 0,3 mm 1 m/S 739 mmHg 92%
    21:00 +23°C° 0,2 mm 1 m/S 739 mmHg 93%
    22:00 +22°C° 0,2 mm 1 m/S 739 mmHg 94%
    23:00 +22°C° 0,2 mm 1 m/S 739 mmHg 95%
    Mehr zeigen